M I D A S
Marine Information and Data Acquisition System
Tripno 1736 of the Zeeleeuw from 2009-07-22 06:57:50 to 2009-07-22 14:39:28
Back to CruiseResearch ActivitiesStationsMapUnderway DataData graphs

EquipmentUnitsComments
TimeDGPSUTC
LatitudeDGPSDM.mWGS84
LongitudeDGPSDM.mWGS84
SpeedMeteo Stationm/sRelative wind speed
DirectionMeteo StationdegRelative wind direction
TemperatureMeteo Stationdeg CelciusAir temperature
PressureMeteo StationPaAtmospheric pressure
HumidityMeteo Station%Relative humidity
Missing or incorrect values are displayed as -999
Metereological data collected by the RV Zeeleeuw from 2009-07-22 06:56:46 to 2009-07-22 15:28:27
                                                                                    Next 1000 lines
Time Latitude Longitude Speed Direction Temperature Pressure Humidity
2009-07-22 06:56:56 51°13.662 2°55.96 3 24 18.4 100460 72
2009-07-22 06:57:01 51°13.662 2°55.96 3.8 23 18.4 100460 72
2009-07-22 06:57:06 51°13.662 2°55.96 3.8 26 18.4 100470 72
2009-07-22 06:57:11 51°13.662 2°55.96 3 33 18.4 100470 72
2009-07-22 06:57:16 51°13.662 2°55.96 3.9 44 18.4 100470 72
2009-07-22 06:57:21 51°13.662 2°55.96 4.2 41 18.4 100470 72
2009-07-22 06:57:26 51°13.662 2°55.96 4.8 42 18.4 100460 72
2009-07-22 06:57:31 51°13.662 2°55.96 4.9 37 18.4 100460 72
2009-07-22 06:57:36 51°13.662 2°55.96 5.3 41 18.4 100460 72
2009-07-22 06:57:41 51°13.662 2°55.96 3.4 24 18.4 100460 72
2009-07-22 06:57:46 51°13.662 2°55.96 3.9 28 18.4 100460 72
2009-07-22 06:57:51 51°13.662 2°55.96 4.8 36 18.4 100460 72
2009-07-22 06:57:56 51°13.662 2°55.96 4.1 39 18.4 100470 71
2009-07-22 06:58:01 51°13.662 2°55.96 4.5 34 18.4 100470 71
2009-07-22 06:58:06 51°13.662 2°55.96 5.7 39 18.4 100470 72
2009-07-22 06:58:11 51°13.662 2°55.96 4.6 32 18.4 100470 72
2009-07-22 06:58:16 51°13.662 2°55.96 3.8 38 18.4 100470 71
2009-07-22 06:58:21 51°13.661 2°55.96 4.8 28 18.4 100470 71
2009-07-22 06:58:26 51°13.661 2°55.959 4.1 31 18.4 100470 72
2009-07-22 06:58:31 51°13.661 2°55.959 3.1 32 18.4 100470 72
2009-07-22 06:58:36 51°13.661 2°55.959 3 42 18.4 100470 71
2009-07-22 06:58:41 51°13.661 2°55.96 3.7 34 18.4 100470 71
2009-07-22 06:58:46 51°13.661 2°55.96 3.2 13 18.4 100470 71
2009-07-22 06:58:51 51°13.66 2°55.959 3.3 3 18.4 100470 71
2009-07-22 06:58:56 51°13.659 2°55.959 2.9 10 18.4 100470 72
2009-07-22 06:59:01 51°13.659 2°55.96 3.2 33 18.4 100470 72
2009-07-22 06:59:06 51°13.659 2°55.96 2.5 34 18.4 100470 71
2009-07-22 06:59:11 51°13.66 2°55.96 2.7 44 18.4 100470 71
2009-07-22 06:59:16 51°13.66 2°55.961 2.5 39 18.4 100470 71
2009-07-22 06:59:21 51°13.659 2°55.961 3.1 29 18.4 100470 71
2009-07-22 06:59:26 51°13.659 2°55.961 2.2 26 18.4 100470 72
2009-07-22 06:59:31 51°13.659 2°55.961 2.5 22 18.4 100470 72
2009-07-22 06:59:36 51°13.659 2°55.961 2.2 31 18.4 100470 72
2009-07-22 06:59:41 51°13.659 2°55.961 2.6 23 18.4 100470 72
2009-07-22 06:59:46 51°13.659 2°55.961 2.5 24 18.4 100470 72
2009-07-22 06:59:51 51°13.659 2°55.961 1.6 21 18.4 100470 72
2009-07-22 06:59:56 51°13.659 2°55.961 2.7 35 18.4 100470 73
2009-07-22 07:00:01 51°13.659 2°55.961 3.9 16 18.4 100470 73
2009-07-22 07:00:06 51°13.659 2°55.961 3.7 16 18.4 100470 71
2009-07-22 07:00:11 51°13.659 2°55.96 3.2 22 18.4 100470 71
2009-07-22 07:00:16 51°13.66 2°55.96 3.3 31 18.5 100470 72
2009-07-22 07:00:20 51°13.66 2°55.96 3.3 34 18.5 100470 72
2009-07-22 07:00:27 51°13.66 2°55.96 3.5 33 18.4 100470 71
2009-07-22 07:00:31 51°13.66 2°55.96 4.1 27 18.4 100470 71
2009-07-22 07:00:36 51°13.66 2°55.96 3.2 17 18.4 100470 72
2009-07-22 07:00:41 51°13.661 2°55.96 3.2 10 18.4 100470 72
2009-07-22 07:00:46 51°13.661 2°55.96 3.4 24 18.4 100470 72
2009-07-22 07:00:51 51°13.661 2°55.96 4.7 25 18.4 100470 72
2009-07-22 07:00:56 51°13.661 2°55.96 2.9 40 18.4 100470 71
2009-07-22 07:01:01 51°13.661 2°55.96 3.2 27 18.4 100470 71
2009-07-22 07:01:06 51°13.661 2°55.96 3.1 38 18.4 100470 71
2009-07-22 07:01:11 51°13.661 2°55.96 2.9 44 18.4 100470 71
2009-07-22 07:01:16 51°13.661 2°55.96 2.5 40 18.4 100470 71
2009-07-22 07:01:21 51°13.66 2°55.961 2.1 17 18.4 100470 71
2009-07-22 07:01:26 51°13.66 2°55.961 3.5 20 18.4 100470 73
2009-07-22 07:01:31 51°13.66 2°55.961 3.4 34 18.4 100470 73
2009-07-22 07:01:36 51°13.66 2°55.961 4.6 33 18.4 100470 72
2009-07-22 07:01:41 51°13.66 2°55.961 4.5 38 18.4 100470 72
2009-07-22 07:01:46 51°13.66 2°55.962 3 43 18.4 100470 72
2009-07-22 07:01:51 51°13.66 2°55.962 3.5 33 18.4 100470 72
2009-07-22 07:01:56 51°13.66 2°55.961 6.1 33 18.4 100470 72
2009-07-22 07:02:01 51°13.66 2°55.961 6.3 38 18.4 100470 72
2009-07-22 07:02:06 51°13.66 2°55.961 6.1 36 18.4 100470 71
2009-07-22 07:02:11 51°13.661 2°55.962 2.9 37 18.4 100470 71
2009-07-22 07:02:16 51°13.661 2°55.962 2.4 20 18.4 100470 71
2009-07-22 07:02:21 51°13.662 2°55.962 4.4 35 18.4 100470 71
2009-07-22 07:02:26 51°13.662 2°55.962 4.9 41 18.4 100470 72
2009-07-22 07:02:31 51°13.662 2°55.962 3.8 41 18.4 100470 72
2009-07-22 07:02:36 51°13.662 2°55.962 3.2 39 18.4 100470 71
2009-07-22 07:02:41 51°13.662 2°55.962 5.4 26 18.4 100470 71
2009-07-22 07:02:46 51°13.662 2°55.962 4.6 7 18.4 100470 72
2009-07-22 07:02:51 51°13.662 2°55.961 4.7 28 18.4 100470 72
2009-07-22 07:02:56 51°13.662 2°55.961 4.4 23 18.4 100470 72
2009-07-22 07:03:01 51°13.662 2°55.961 5.2 21 18.4 100470 72
2009-07-22 07:03:06 51°13.662 2°55.961 5.4 32 18.4 100470 71
2009-07-22 07:03:11 51°13.662 2°55.961 3.7 38 18.4 100470 71
2009-07-22 07:03:16 51°13.661 2°55.96 4.1 35 18.4 100470 72
2009-07-22 07:03:21 51°13.66 2°55.96 4.9 28 18.4 100470 72
2009-07-22 07:03:26 51°13.66 2°55.96 5 26 18.4 100470 72
2009-07-22 07:03:31 51°13.66 2°55.96 3.3 9 18.4 100470 72
2009-07-22 07:03:36 51°13.66 2°55.96 3.7 10 18.4 100470 71
2009-07-22 07:03:41 51°13.661 2°55.96 4 28 18.4 100470 71
2009-07-22 07:03:46 51°13.661 2°55.96 4.8 32 18.4 100470 71
2009-07-22 07:03:51 51°13.661 2°55.96 5.2 24 18.4 100470 71
2009-07-22 07:03:56 51°13.661 2°55.96 5.3 28 18.4 100470 72
2009-07-22 07:04:01 51°13.661 2°55.959 4 21 18.4 100470 72
2009-07-22 07:04:06 51°13.662 2°55.96 3.3 22 18.4 100470 71
2009-07-22 07:04:11 51°13.662 2°55.96 3.3 38 18.4 100470 71
2009-07-22 07:04:16 51°13.662 2°55.96 4.1 37 18.4 100470 72
2009-07-22 07:04:21 51°13.663 2°55.96 3.8 34 18.4 100470 72
2009-07-22 07:04:26 51°13.663 2°55.961 3.5 33 18.4 100470 71
2009-07-22 07:04:31 51°13.663 2°55.961 3.7 37 18.4 100470 71
2009-07-22 07:04:36 51°13.663 2°55.961 3.5 42 18.4 100470 72
2009-07-22 07:04:41 51°13.663 2°55.96 2.6 40 18.4 100470 72
2009-07-22 07:04:46 51°13.663 2°55.96 2.3 43 18.4 100470 72
2009-07-22 07:04:51 51°13.662 2°55.96 2.4 32 18.4 100470 72
2009-07-22 07:04:56 51°13.662 2°55.96 2.1 40 18.4 100470 71
2009-07-22 07:05:01 51°13.662 2°55.96 4.1 6 18.4 100470 71
2009-07-22 07:05:06 51°13.662 2°55.96 2.7 278 18.5 100470 72
2009-07-22 07:05:11 51°13.662 2°55.961 3.6 44 18.5 100470 72
2009-07-22 07:05:16 51°13.662 2°55.961 3.3 78 18.5 100470 71
2009-07-22 07:05:21 51°13.661 2°55.961 3.9 35 18.5 100470 71
2009-07-22 07:05:26 51°13.661 2°55.961 3.8 43 18.5 100470 72
2009-07-22 07:05:31 51°13.661 2°55.961 4.5 42 18.5 100470 72
2009-07-22 07:05:36 51°13.661 2°55.961 4.1 80 18.5 100480 71
2009-07-22 07:05:41 51°13.661 2°55.961 3.8 43 18.5 100480 71
2009-07-22 07:05:46 51°13.661 2°55.96 3.4 45 18.5 100480 71
2009-07-22 07:05:51 51°13.661 2°55.959 3.3 38 18.5 100480 71
2009-07-22 07:05:56 51°13.661 2°55.958 3.2 77 18.4 100470 72
2009-07-22 07:06:01 51°13.662 2°55.956 4.4 40 18.4 100470 72
2009-07-22 07:06:06 51°13.662 2°55.954 4.8 30 18.5 100470 72
2009-07-22 07:06:11 51°13.663 2°55.951 3.3 39 18.5 100470 72
2009-07-22 07:06:16 51°13.664 2°55.947 3.9 75 18.5 100470 71
2009-07-22 07:06:21 51°13.665 2°55.943 5 40 18.5 100470 71
2009-07-22 07:06:26 51°13.667 2°55.938 6.7 26 18.5 100470 72
2009-07-22 07:06:31 51°13.668 2°55.932 6.8 38 18.5 100470 72
2009-07-22 07:06:36 51°13.67 2°55.926 6.7 34 18.5 100480 72
2009-07-22 07:06:41 51°13.672 2°55.92 4.8 30 18.5 100480 72
2009-07-22 07:06:46 51°13.674 2°55.913 3.9 44 18.5 100480 71
2009-07-22 07:06:51 51°13.676 2°55.906 4.5 39 18.5 100480 71
2009-07-22 07:06:56 51°13.678 2°55.899 4.9 41 18.5 100480 72
2009-07-22 07:07:01 51°13.68 2°55.891 4.5 43 18.5 100480 72
2009-07-22 07:07:06 51°13.682 2°55.884 4.7 43 18.5 100470 71
2009-07-22 07:07:11 51°13.684 2°55.876 4.9 38 18.5 100470 71
2009-07-22 07:07:16 51°13.686 2°55.868 6.8 83 18.5 100480 71
2009-07-22 07:07:21 51°13.688 2°55.861 6 36 18.5 100480 71
2009-07-22 07:07:26 51°13.689 2°55.853 7 22 18.4 100480 71
2009-07-22 07:07:31 51°13.69 2°55.845 6.8 38 18.4 100480 71
2009-07-22 07:07:36 51°13.69 2°55.837 6.9 44 18.5 100470 72
2009-07-22 07:07:41 51°13.691 2°55.828 6.2 43 18.5 100470 72
2009-07-22 07:07:46 51°13.691 2°55.82 6.7 26 18.4 100480 71
2009-07-22 07:07:51 51°13.692 2°55.812 3.8 33 18.4 100480 71
2009-07-22 07:07:56 51°13.692 2°55.804 4.7 40 18.5 100470 71
2009-07-22 07:08:01 51°13.692 2°55.796 4 44 18.5 100470 71
2009-07-22 07:08:06 51°13.692 2°55.789 4.4 26 18.5 100470 71
2009-07-22 07:08:11 51°13.691 2°55.782 4.9 33 18.5 100470 71
2009-07-22 07:08:16 51°13.691 2°55.776 3.9 77 18.5 100480 71
2009-07-22 07:08:21 51°13.691 2°55.77 4.3 35 18.5 100480 71
2009-07-22 07:08:26 51°13.691 2°55.764 4.6 22 18.5 100470 71
2009-07-22 07:08:31 51°13.691 2°55.759 5.8 33 18.5 100470 71
2009-07-22 07:08:36 51°13.691 2°55.755 5.8 76 18.5 100480 72
2009-07-22 07:08:40 51°13.691 2°55.754 3.9 32 18.5 100480 72
2009-07-22 07:08:45 51°13.691 2°55.753 3.4 83 18.5 100480 72
2009-07-22 07:08:50 51°13.692 2°55.753 4.1 33 18.5 100480 72
2009-07-22 07:08:55 51°13.693 2°55.754 2.9 22 18.5 100480 71
2009-07-22 07:09:00 51°13.694 2°55.755 5.2 38 18.5 100480 71
2009-07-22 07:09:05 51°13.695 2°55.756 4 22 18.5 100480 71
2009-07-22 07:09:09 51°13.696 2°55.757 2.4 32 18.5 100480 71
2009-07-22 07:09:14 51°13.697 2°55.757 3.5 22 18.5 100480 71
2009-07-22 07:09:19 51°13.697 2°55.757 4.2 33 18.5 100480 71
2009-07-22 07:09:24 51°13.697 2°55.757 5.2 29 18.5 100480 72
2009-07-22 07:09:29 51°13.696 2°55.756 5 34 18.5 100480 72
2009-07-22 07:09:34 51°13.695 2°55.755 5.4 28 18.5 100480 71
2009-07-22 07:09:39 51°13.695 2°55.754 6 36 18.5 100480 71
2009-07-22 07:09:44 51°13.694 2°55.754 6.5 77 18.5 100480 72
2009-07-22 07:09:48 51°13.694 2°55.753 6.3 34 18.5 100480 72
2009-07-22 07:09:53 51°13.694 2°55.753 5.8 77 18.5 100480 71
2009-07-22 07:09:58 51°13.695 2°55.753 5.5 34 18.5 100480 71
2009-07-22 07:10:03 51°13.696 2°55.753 5 28 18.5 100480 72
2009-07-22 07:10:08 51°13.698 2°55.753 5.4 260 18.5 100480 72
2009-07-22 07:10:12 51°13.7 2°55.752 4.6 280 18.5 100480 71
2009-07-22 07:10:17 51°13.702 2°55.752 4.7 253 18.5 100480 71
2009-07-22 07:10:23 51°13.706 2°55.75 5.6 258 18.5 100490 72
2009-07-22 07:10:28 51°13.709 2°55.748 5.2 250 18.5 100490 72
2009-07-22 07:10:32 51°13.711 2°55.746 3.9 279 18.5 100490 71
2009-07-22 07:10:37 51°13.715 2°55.743 4.7 247 18.5 100490 71
2009-07-22 07:10:43 51°13.72 2°55.738 5 23 18.5 100480 72
2009-07-22 07:10:48 51°13.725 2°55.734 3.5 251 18.5 100480 72
2009-07-22 07:10:52 51°13.729 2°55.73 4 278 18.5 100480 72
2009-07-22 07:10:57 51°13.735 2°55.724 3.5 249 18.5 100480 72
2009-07-22 07:11:02 51°13.741 2°55.718 2.5 260 18.5 100480 71
2009-07-22 07:11:08 51°13.749 2°55.71 3.5 39 18.5 100480 71
2009-07-22 07:11:12 51°13.755 2°55.704 4.2 21 18.5 100480 72
2009-07-22 07:11:17 51°13.763 2°55.697 2.8 35 18.5 100480 72
2009-07-22 07:11:22 51°13.77 2°55.689 2.5 27 18.5 100470 71
2009-07-22 07:11:28 51°13.78 2°55.679 3 320 18.5 100470 71
2009-07-22 07:11:32 51°13.787 2°55.672 4.8 280 18.5 100480 71
2009-07-22 07:11:38 51°13.798 2°55.662 3.9 37 18.5 100480 71
2009-07-22 07:11:43 51°13.808 2°55.654 4.6 317 18.5 100480 71
2009-07-22 07:11:48 51°13.817 2°55.646 3.5 39 18.5 100480 71
2009-07-22 07:11:52 51°13.825 2°55.639 4.2 25 18.5 100480 72
2009-07-22 07:11:57 51°13.835 2°55.631 4.2 335 18.5 100480 72
2009-07-22 07:12:02 51°13.846 2°55.622 5.8 322 18.5 100470 72
2009-07-22 07:12:08 51°13.858 2°55.613 3.9 234 18.5 100470 72
2009-07-22 07:12:12 51°13.866 2°55.605 4.7 323 18.6 100480 71
2009-07-22 07:12:18 51°13.879 2°55.596 5.3 32 18.6 100480 71
2009-07-22 07:12:22 51°13.888 2°55.589 7 25 18.5 100480 72
2009-07-22 07:12:28 51°13.901 2°55.579 6.3 38 18.5 100480 72
2009-07-22 07:12:32 51°13.91 2°55.572 5.4 280 18.6 100480 71
2009-07-22 07:12:38 51°13.923 2°55.562 6.8 34 18.6 100480 71
2009-07-22 07:12:42 51°13.932 2°55.555 5.5 25 18.6 100470 72
2009-07-22 07:12:47 51°13.943 2°55.547 5 240 18.6 100470 72
2009-07-22 07:12:52 51°13.955 2°55.539 6.4 282 18.6 100480 72
2009-07-22 07:12:57 51°13.966 2°55.53 7.7 256 18.6 100480 72
2009-07-22 07:13:02 51°13.978 2°55.522 4.7 285 18.6 100480 72
2009-07-22 07:13:08 51°13.992 2°55.512 5 237 18.6 100480 72
2009-07-22 07:13:12 51°14.001 2°55.506 6.7 282 18.6 100480 72
2009-07-22 07:13:18 51°14.015 2°55.495 4.8 37 18.6 100480 72
2009-07-22 07:13:23 51°14.027 2°55.487 6.2 26 18.5 100480 70
2009-07-22 07:13:28 51°14.038 2°55.479 5.8 317 18.5 100480 70
2009-07-22 07:13:32 51°14.048 2°55.472 5.5 318 18.5 100480 72
2009-07-22 07:13:37 51°14.059 2°55.463 5.6 32 18.5 100480 72
2009-07-22 07:13:42 51°14.071 2°55.455 5.8 20 18.5 100480 72
2009-07-22 07:13:47 51°14.083 2°55.446 5.4 31 18.5 100480 72
2009-07-22 07:13:52 51°14.095 2°55.437 5.6 27 18.6 100470 70
2009-07-22 07:13:57 51°14.106 2°55.428 5.5 321 18.6 100470 70
2009-07-22 07:14:02 51°14.118 2°55.419 5.1 284 18.6 100480 71
2009-07-22 07:14:08 51°14.132 2°55.407 4.7 38 18.6 100480 71
2009-07-22 07:14:12 51°14.141 2°55.399 4.2 26 18.6 100480 71
2009-07-22 07:14:17 51°14.152 2°55.388 7 319 18.6 100480 71
2009-07-22 07:14:22 51°14.163 2°55.377 5.9 317 18.6 100480 71
2009-07-22 07:14:28 51°14.176 2°55.363 5.5 40 18.6 100480 71
2009-07-22 07:14:32 51°14.185 2°55.354 6.5 30 18.6 100480 71
2009-07-22 07:14:37 51°14.196 2°55.341 4.5 317 18.6 100480 71
2009-07-22 07:14:42 51°14.207 2°55.329 6.5 317 18.6 100470 70
2009-07-22 07:14:48 51°14.219 2°55.313 8.8 33 18.6 100470 70
2009-07-22 07:14:52 51°14.228 2°55.302 8.3 25 18.6 100470 71
2009-07-22 07:14:57 51°14.238 2°55.288 9.8 233 18.6 100470 71
2009-07-22 07:15:02 51°14.248 2°55.273 9.3 22 18.6 100470 70
2009-07-22 07:15:07 51°14.258 2°55.258 9.9 235 18.6 100470 70
2009-07-22 07:15:12 51°14.267 2°55.243 11.7 285 18.6 100470 70
2009-07-22 07:15:17 51°14.277 2°55.227 9.7 36 18.6 100470 70
2009-07-22 07:15:22 51°14.287 2°55.211 11.9 27 18.6 100460 71
2009-07-22 07:15:27 51°14.296 2°55.194 11.3 38 18.6 100460 71
2009-07-22 07:15:32 51°14.306 2°55.177 11.5 282 18.6 100470 70
2009-07-22 07:15:37 51°14.315 2°55.16 11.2 36 18.6 100470 70
2009-07-22 07:15:42 51°14.323 2°55.141 11.8 316 18.6 100470 70
2009-07-22 07:15:48 51°14.333 2°55.119 11 38 18.6 100470 70
2009-07-22 07:15:52 51°14.34 2°55.103 11.5 26 18.6 100470 71
2009-07-22 07:15:57 51°14.348 2°55.084 12.1 36 18.6 100470 71
2009-07-22 07:16:01 51°14.354 2°55.068 12.7 279 18.7 100470 71
2009-07-22 07:16:07 51°14.363 2°55.044 12.8 33 18.7 100470 71
2009-07-22 07:16:12 51°14.371 2°55.023 13.1 25 18.7 100460 71
2009-07-22 07:16:17 51°14.379 2°55.003 12.6 33 18.7 100460 71
2009-07-22 07:16:22 51°14.386 2°54.982 14.7 23 18.6 100460 71
2009-07-22 07:16:27 51°14.394 2°54.961 13.3 38 18.6 100460 71
2009-07-22 07:16:32 51°14.401 2°54.94 11.6 281 18.6 100440 71
2009-07-22 07:16:36 51°14.407 2°54.923 13.1 37 18.6 100440 71
2009-07-22 07:16:42 51°14.416 2°54.897 14.2 280 18.6 100440 70
2009-07-22 07:16:48 51°14.424 2°54.871 13 33 18.6 100440 70
2009-07-22 07:16:52 51°14.43 2°54.854 14.4 277 18.6 100450 70
2009-07-22 07:16:57 51°14.437 2°54.831 15.5 34 18.6 100450 70
2009-07-22 07:17:02 51°14.444 2°54.809 13 24 18.6 100430 71
2009-07-22 07:17:08 51°14.453 2°54.782 14.9 37 18.6 100430 71
2009-07-22 07:17:12 51°14.458 2°54.764 11.7 25 18.6 100440 71
2009-07-22 07:17:17 51°14.465 2°54.741 12.7 38 18.6 100440 71
2009-07-22 07:17:22 51°14.472 2°54.718 11.8 29 18.6 100440 70
2009-07-22 07:17:28 51°14.48 2°54.69 11.9 36 18.6 100440 70
2009-07-22 07:17:32 51°14.486 2°54.672 14.2 285 18.6 100440 71
2009-07-22 07:17:37 51°14.493 2°54.649 14 36 18.6 100440 71
2009-07-22 07:17:41 51°14.498 2°54.63 13.7 281 18.6 100450 71
2009-07-22 07:17:47 51°14.507 2°54.603 12.7 33 18.6 100450 71
2009-07-22 07:17:52 51°14.514 2°54.58 14.7 279 18.6 100450 71
2009-07-22 07:17:57 51°14.522 2°54.558 12.8 33 18.6 100450 71
2009-07-22 07:18:02 51°14.53 2°54.535 12.8 279 18.6 100450 72
2009-07-22 07:18:07 51°14.538 2°54.513 12.4 234 18.6 100450 72
2009-07-22 07:18:12 51°14.546 2°54.491 11.3 26 18.6 100450 71
2009-07-22 07:18:17 51°14.555 2°54.47 11.5 235 18.6 100450 71
2009-07-22 07:18:21 51°14.562 2°54.453 9.8 25 18.6 100450 71
2009-07-22 07:18:27 51°14.573 2°54.429 12.2 34 18.6 100450 71
2009-07-22 07:18:32 51°14.583 2°54.41 9.9 279 18.6 100450 70
2009-07-22 07:18:37 51°14.594 2°54.391 10.9 238 18.6 100450 70
2009-07-22 07:18:42 51°14.605 2°54.374 12.2 285 18.6 100450 71
2009-07-22 07:18:48 51°14.619 2°54.354 10 236 18.6 100450 71
2009-07-22 07:18:52 51°14.629 2°54.342 10 280 18.6 100460 71
2009-07-22 07:18:56 51°14.638 2°54.329 10.6 237 18.6 100460 71
2009-07-22 07:19:02 51°14.653 2°54.311 12 281 18.6 100460 71
2009-07-22 07:19:08 51°14.668 2°54.293 9.7 240 18.6 100460 71
2009-07-22 07:19:12 51°14.678 2°54.282 11.5 281 18.6 100460 71
2009-07-22 07:19:17 51°14.691 2°54.268 10.9 240 18.6 100460 71
2009-07-22 07:19:22 51°14.704 2°54.255 10 28 18.6 100460 71
2009-07-22 07:19:28 51°14.72 2°54.24 12.1 244 18.6 100460 71
2009-07-22 07:19:32 51°14.73 2°54.23 11.7 282 18.6 100460 71
2009-07-22 07:19:37 51°14.744 2°54.219 12.4 243 18.6 100460 71
2009-07-22 07:19:42 51°14.757 2°54.207 10.4 281 18.6 100470 71
2009-07-22 07:19:47 51°14.77 2°54.194 10.6 241 18.6 100470 71
2009-07-22 07:19:52 51°14.783 2°54.181 11.4 279 18.6 100470 72
2009-07-22 07:19:57 51°14.796 2°54.168 11.8 242 18.6 100470 72
2009-07-22 07:20:02 51°14.809 2°54.156 12 280 18.6 100460 71
2009-07-22 07:20:07 51°14.823 2°54.142 12 244 18.6 100460 71
2009-07-22 07:20:12 51°14.835 2°54.129 9.1 283 18.6 100470 71
2009-07-22 07:20:17 51°14.848 2°54.115 10.1 241 18.6 100470 71
2009-07-22 07:20:22 51°14.861 2°54.102 12.1 23 18.6 100460 72
2009-07-22 07:20:28 51°14.876 2°54.086 12.9 243 18.6 100460 72
2009-07-22 07:20:32 51°14.886 2°54.075 12 25 18.6 100470 72
2009-07-22 07:20:37 51°14.899 2°54.061 10.3 242 18.6 100470 72
2009-07-22 07:20:42 51°14.912 2°54.048 9.3 280 18.6 100470 72
2009-07-22 07:20:48 51°14.928 2°54.032 11.2 244 18.6 100470 72
2009-07-22 07:20:52 51°14.938 2°54.022 9.3 29 18.5 100470 71
2009-07-22 07:20:57 51°14.951 2°54.009 11.6 242 18.5 100470 71
2009-07-22 07:21:01 51°14.961 2°53.999 11.1 285 18.5 100470 71
2009-07-22 07:21:07 51°14.977 2°53.985 11.5 245 18.5 100470 71
2009-07-22 07:21:12 51°14.99 2°53.971 11 279 18.5 100470 72
2009-07-22 07:21:17 51°15.003 2°53.959 9.7 242 18.5 100470 72
2009-07-22 07:21:22 51°15.016 2°53.946 11 243 18.6 100470 71
2009-07-22 07:21:28 51°15.032 2°53.931 10.3 244 18.6 100470 71
2009-07-22 07:21:32 51°15.043 2°53.921 10.8 283 18.5 100470 71
2009-07-22 07:21:37 51°15.056 2°53.909 10.1 242 18.5 100470 71
2009-07-22 07:21:42 51°15.069 2°53.896 8.8 244 18.5 100470 71
2009-07-22 07:21:48 51°15.085 2°53.881 9.6 243 18.5 100470 71
2009-07-22 07:21:52 51°15.096 2°53.871 9.3 282 18.5 100470 72
2009-07-22 07:21:57 51°15.109 2°53.86 11.3 244 18.5 100470 72
2009-07-22 07:22:02 51°15.122 2°53.847 10.4 25 18.5 100470 71
2009-07-22 07:22:08 51°15.138 2°53.832 12.2 244 18.5 100470 71
2009-07-22 07:22:12 51°15.148 2°53.822 12.4 282 18.5 100470 72
2009-07-22 07:22:17 51°15.161 2°53.809 10 246 18.5 100470 72
2009-07-22 07:22:22 51°15.174 2°53.796 10.5 26 18.5 100480 72
2009-07-22 07:22:28 51°15.189 2°53.782 10.5 244 18.5 100480 72
2009-07-22 07:22:32 51°15.2 2°53.772 8.2 243 18.5 100470 72
2009-07-22 07:22:37 51°15.213 2°53.759 10.7 244 18.5 100470 72
2009-07-22 07:22:42 51°15.226 2°53.747 9.7 284 18.5 100470 72
2009-07-22 07:22:48 51°15.242 2°53.732 10.2 241 18.5 100470 72
2009-07-22 07:22:52 51°15.252 2°53.722 10.9 22 18.5 100470 71
2009-07-22 07:22:57 51°15.265 2°53.71 11 247 18.5 100470 71
2009-07-22 07:23:02 51°15.278 2°53.697 9.4 278 18.5 100480 72
2009-07-22 07:23:08 51°15.294 2°53.682 9.2 244 18.5 100480 72
2009-07-22 07:23:12 51°15.305 2°53.672 10.9 24 18.5 100470 71
2009-07-22 07:23:17 51°15.318 2°53.66 9 243 18.5 100470 71
2009-07-22 07:23:22 51°15.331 2°53.647 9.3 21 18.5 100480 71
2009-07-22 07:23:28 51°15.347 2°53.632 11.1 245 18.5 100480 71
2009-07-22 07:23:32 51°15.357 2°53.622 12.9 285 18.5 100470 71
2009-07-22 07:23:37 51°15.37 2°53.609 11.4 244 18.5 100470 71
2009-07-22 07:23:41 51°15.38 2°53.599 4.4 20 18.5 100470 73
2009-07-22 07:23:47 51°15.396 2°53.583 9.9 245 18.5 100470 73
2009-07-22 07:23:52 51°15.409 2°53.57 11.4 281 18.6 100470 72
2009-07-22 07:23:57 51°15.422 2°53.557 10.7 242 18.6 100470 72
2009-07-22 07:24:02 51°15.435 2°53.544 10.6 21 18.5 100470 72
2009-07-22 07:24:08 51°15.45 2°53.529 10.6 242 18.5 100470 72
2009-07-22 07:24:12 51°15.461 2°53.518 10.8 284 18.5 100470 72
2009-07-22 07:24:16 51°15.471 2°53.508 9.2 242 18.5 100470 72
2009-07-22 07:24:22 51°15.487 2°53.493 8.3 243 18.5 100470 71
2009-07-22 07:24:27 51°15.5 2°53.48 12 241 18.5 100470 71
2009-07-22 07:24:32 51°15.513 2°53.468 11.1 284 18.5 100470 71
2009-07-22 07:24:37 51°15.526 2°53.455 11.3 245 18.5 100470 71
2009-07-22 07:24:42 51°15.539 2°53.442 10.8 282 18.5 100470 71
2009-07-22 07:24:47 51°15.552 2°53.429 9.3 240 18.5 100470 71
2009-07-22 07:24:52 51°15.565 2°53.416 12.3 23 18.5 100470 71
2009-07-22 07:24:57 51°15.578 2°53.403 9.6 243 18.5 100470 71
2009-07-22 07:25:02 51°15.591 2°53.39 11.4 280 18.5 100480 72
2009-07-22 07:25:08 51°15.606 2°53.374 9.6 241 18.5 100480 72
2009-07-22 07:25:12 51°15.617 2°53.364 11 276 18.5 100470 72
2009-07-22 07:25:17 51°15.63 2°53.351 10.7 245 18.5 100470 72
2009-07-22 07:25:22 51°15.643 2°53.338 11 243 18.5 100470 73
2009-07-22 07:25:28 51°15.659 2°53.324 10.1 246 18.5 100470 73
2009-07-22 07:25:32 51°15.67 2°53.315 11.8 279 18.5 100470 71
2009-07-22 07:25:37 51°15.684 2°53.304 9.3 248 18.5 100470 71
2009-07-22 07:25:42 51°15.697 2°53.292 9.9 278 18.5 100460 72
2009-07-22 07:25:48 51°15.714 2°53.28 12.1 245 18.5 100460 72
2009-07-22 07:25:52 51°15.725 2°53.271 11.4 284 18.5 100480 72
2009-07-22 07:25:57 51°15.738 2°53.26 11.5 249 18.5 100480 72
2009-07-22 07:26:02 51°15.752 2°53.249 11.7 249 18.5 100470 72
2009-07-22 07:26:07 51°15.766 2°53.239 11.3 246 18.5 100470 72
2009-07-22 07:26:12 51°15.78 2°53.229 10 283 18.5 100470 72
2009-07-22 07:26:17 51°15.793 2°53.219 9.9 243 18.5 100470 72
2009-07-22 07:26:22 51°15.807 2°53.208 11.4 21 18.5 100470 72
2009-07-22 07:26:28 51°15.824 2°53.196 11.6 249 18.5 100470 72
2009-07-22 07:26:32 51°15.835 2°53.187 10.2 279 18.5 100480 71
2009-07-22 07:26:37 51°15.848 2°53.178 11.4 248 18.5 100480 71
2009-07-22 07:26:42 51°15.862 2°53.167 9.2 247 18.5 100470 72
2009-07-22 07:26:48 51°15.879 2°53.155 10.9 248 18.5 100470 72
2009-07-22 07:26:52 51°15.889 2°53.146 10.5 283 18.5 100470 72
2009-07-22 07:26:57 51°15.903 2°53.137 9.9 248 18.5 100470 72
2009-07-22 07:27:01 51°15.914 2°53.128 10.8 280 18.5 100470 71
2009-07-22 07:27:07 51°15.931 2°53.116 10.3 246 18.5 100470 71
2009-07-22 07:27:12 51°15.944 2°53.106 11.6 20 18.5 100480 72
2009-07-22 07:27:17 51°15.958 2°53.095 9.9 247 18.5 100480 72
2009-07-22 07:27:22 51°15.972 2°53.085 9.7 23 18.5 100470 73
2009-07-22 07:27:27 51°15.986 2°53.075 9.8 248 18.5 100470 73
2009-07-22 07:27:32 51°15.999 2°53.065 11.1 279 18.5 100480 71
2009-07-22 07:27:36 51°16.01 2°53.056 10.9 244 18.5 100480 71
2009-07-22 07:27:42 51°16.027 2°53.044 11.2 278 18.5 100470 73
2009-07-22 07:27:48 51°16.043 2°53.032 10.9 252 18.5 100470 73
2009-07-22 07:27:52 51°16.054 2°53.024 8.7 278 18.5 100480 72
2009-07-22 07:27:57 51°16.068 2°53.014 8.9 243 18.5 100480 72
2009-07-22 07:28:02 51°16.082 2°53.003 10.5 279 18.5 100480 73
2009-07-22 07:28:08 51°16.098 2°52.991 11.2 247 18.5 100480 73
2009-07-22 07:28:12 51°16.109 2°52.983 10.1 278 18.5 100480 72
2009-07-22 07:28:17 51°16.123 2°52.973 10.7 245 18.5 100480 72
2009-07-22 07:28:22 51°16.137 2°52.963 10.3 249 18.5 100470 72
2009-07-22 07:28:28 51°16.153 2°52.95 10.6 248 18.5 100470 72
2009-07-22 07:28:32 51°16.164 2°52.942 10.9 285 18.5 100480 73
2009-07-22 07:28:37 51°16.178 2°52.932 10 249 18.5 100480 73
2009-07-22 07:28:42 51°16.191 2°52.921 10 281 18.5 100470 73
2009-07-22 07:28:47 51°16.205 2°52.91 9.6 246 18.5 100470 73
2009-07-22 07:28:52 51°16.218 2°52.9 10 280 18.5 100470 72
2009-07-22 07:28:57 51°16.232 2°52.89 11.9 249 18.5 100470 72
2009-07-22 07:29:02 51°16.246 2°52.879 11.5 283 18.5 100470 71
2009-07-22 07:29:07 51°16.26 2°52.869 11 249 18.5 100470 71
2009-07-22 07:29:12 51°16.273 2°52.859 10.8 250 18.5 100480 72
2009-07-22 07:29:17 51°16.287 2°52.85 11.2 248 18.5 100480 72
2009-07-22 07:29:22 51°16.301 2°52.839 10.3 250 18.5 100460 72
2009-07-22 07:29:27 51°16.315 2°52.83 9.9 247 18.5 100460 72
2009-07-22 07:29:32 51°16.328 2°52.819 10.2 285 18.5 100470 72
2009-07-22 07:29:36 51°16.339 2°52.811 9.8 245 18.5 100470 72
2009-07-22 07:29:42 51°16.356 2°52.799 11.5 280 18.4 100470 72
2009-07-22 07:29:48 51°16.372 2°52.786 9 244 18.4 100470 72
2009-07-22 07:29:52 51°16.383 2°52.778 8.7 282 18.5 100470 71
2009-07-22 07:29:57 51°16.397 2°52.767 9.3 241 18.5 100470 71
2009-07-22 07:30:02 51°16.411 2°52.759 9 282 18.5 100470 72
2009-07-22 07:30:08 51°16.428 2°52.747 8.2 247 18.5 100470 72
2009-07-22 07:30:12 51°16.439 2°52.74 8.8 23 18.5 100470 72
2009-07-22 07:30:17 51°16.453 2°52.731 8.1 246 18.5 100470 72
2009-07-22 07:30:22 51°16.467 2°52.723 9.5 246 18.5 100470 73
2009-07-22 07:30:28 51°16.484 2°52.712 7.9 244 18.5 100470 73
2009-07-22 07:30:32 51°16.495 2°52.705 8.4 284 18.5 100470 72
2009-07-22 07:30:37 51°16.509 2°52.697 9.3 249 18.5 100470 72
2009-07-22 07:30:41 51°16.52 2°52.69 8.1 24 18.5 100470 73
2009-07-22 07:30:48 51°16.54 2°52.678 8 241 18.5 100470 73
2009-07-22 07:30:52 51°16.551 2°52.672 10.5 282 18.5 100470 72
2009-07-22 07:30:57 51°16.565 2°52.663 9.6 245 18.5 100470 72
2009-07-22 07:31:02 51°16.579 2°52.655 9.9 280 18.5 100480 72
2009-07-22 07:31:08 51°16.596 2°52.645 9 243 18.5 100480 72
2009-07-22 07:31:12 51°16.607 2°52.638 9.3 23 18.5 100470 73
2009-07-22 07:31:17 51°16.621 2°52.63 10.2 247 18.5 100470 73
2009-07-22 07:31:22 51°16.635 2°52.622 9 23 18.5 100470 72
2009-07-22 07:31:28 51°16.652 2°52.612 10.5 246 18.5 100470 72
2009-07-22 07:31:32 51°16.663 2°52.605 10.6 247 18.5 100470 72
2009-07-22 07:31:37 51°16.677 2°52.597 9.1 245 18.5 100470 72
2009-07-22 07:31:42 51°16.691 2°52.588 9.7 282 18.5 100470 73
2009-07-22 07:31:48 51°16.707 2°52.579 10.9 247 18.5 100470 73
2009-07-22 07:31:52 51°16.719 2°52.572 9.9 248 18.5 100470 72
2009-07-22 07:31:57 51°16.733 2°52.565 9.9 248 18.5 100470 72
2009-07-22 07:32:02 51°16.746 2°52.557 10.9 278 18.5 100480 72
2009-07-22 07:32:08 51°16.763 2°52.548 10.7 247 18.5 100480 72
2009-07-22 07:32:12 51°16.774 2°52.542 9.4 248 18.4 100470 73
2009-07-22 07:32:17 51°16.788 2°52.534 9.2 246 18.4 100470 73
2009-07-22 07:32:22 51°16.802 2°52.527 10.4 247 18.4 100480 73
2009-07-22 07:32:28 51°16.818 2°52.517 9.3 250 18.4 100480 73
2009-07-22 07:32:32 51°16.83 2°52.512 8.7 277 18.4 100470 72
2009-07-22 07:32:37 51°16.843 2°52.503 8.9 246 18.4 100470 72
2009-07-22 07:32:42 51°16.857 2°52.496 8 22 18.4 100480 73
2009-07-22 07:32:48 51°16.874 2°52.487 8.2 247 18.4 100480 73
2009-07-22 07:32:52 51°16.885 2°52.481 9.8 278 18.4 100480 72
2009-07-22 07:32:57 51°16.899 2°52.473 9.8 247 18.4 100480 72
2009-07-22 07:33:01 51°16.91 2°52.467 8.9 251 18.4 100480 73
2009-07-22 07:33:07 51°16.926 2°52.457 10 246 18.4 100480 73
2009-07-22 07:33:12 51°16.94 2°52.449 9.8 282 18.4 100480 71
2009-07-22 07:33:17 51°16.953 2°52.441 10.9 246 18.4 100480 71
2009-07-22 07:33:22 51°16.967 2°52.432 11 247 18.4 100480 72
2009-07-22 07:33:27 51°16.98 2°52.424 10.2 248 18.4 100480 72
2009-07-22 07:33:32 51°16.994 2°52.415 9.2 277 18.4 100480 72
2009-07-22 07:33:36 51°17.005 2°52.409 9.6 248 18.4 100480 72
2009-07-22 07:33:42 51°17.021 2°52.398 8.4 283 18.4 100480 72
2009-07-22 07:33:47 51°17.034 2°52.389 8.3 243 18.4 100480 72
2009-07-22 07:33:52 51°17.048 2°52.381 8.7 278 18.4 100480 72
2009-07-22 07:33:57 51°17.062 2°52.372 8.6 247 18.4 100480 72
2009-07-22 07:34:02 51°17.075 2°52.364 9.3 248 18.4 100480 73
2009-07-22 07:34:08 51°17.091 2°52.354 8.3 247 18.4 100480 73
2009-07-22 07:34:12 51°17.103 2°52.347 8.9 244 18.4 100480 72
2009-07-22 07:34:17 51°17.116 2°52.339 9.2 248 18.4 100480 72
2009-07-22 07:34:22 51°17.13 2°52.331 9.1 24 18.4 100480 73
2009-07-22 07:34:28 51°17.146 2°52.321 9.3 242 18.4 100480 73
2009-07-22 07:34:32 51°17.157 2°52.315 10.1 20 18.4 100480 73
2009-07-22 07:34:37 51°17.171 2°52.307 10.6 251 18.4 100480 73
2009-07-22 07:34:41 51°17.182 2°52.301 10.1 280 18.4 100470 73
2009-07-22 07:34:47 51°17.199 2°52.291 9.4 247 18.4 100470 73
2009-07-22 07:34:52 51°17.212 2°52.283 10.4 280 18.4 100480 72
2009-07-22 07:34:57 51°17.226 2°52.274 9.7 248 18.4 100480 72
2009-07-22 07:35:02 51°17.24 2°52.267 10 21 18.4 100480 73
2009-07-22 07:35:08 51°17.256 2°52.256 11.3 247 18.4 100480 73
2009-07-22 07:35:12 51°17.267 2°52.25 8.9 279 18.4 100480 73
2009-07-22 07:35:17 51°17.281 2°52.242 8.5 245 18.4 100480 73
2009-07-22 07:35:21 51°17.292 2°52.235 9.3 250 18.4 100480 73
2009-07-22 07:35:28 51°17.311 2°52.224 9.8 249 18.4 100480 73
2009-07-22 07:35:32 51°17.322 2°52.218 8.8 279 18.4 100480 73
2009-07-22 07:35:37 51°17.336 2°52.209 10.5 246 18.4 100480 73
2009-07-22 07:35:42 51°17.35 2°52.201 9.9 246 18.4 100480 72
2009-07-22 07:35:48 51°17.366 2°52.191 9.6 247 18.4 100480 72
2009-07-22 07:35:52 51°17.378 2°52.184 10.8 283 18.4 100480 72
2009-07-22 07:35:57 51°17.391 2°52.175 8.4 247 18.4 100480 72
2009-07-22 07:36:02 51°17.405 2°52.167 8.1 284 18.4 100480 73
2009-07-22 07:36:08 51°17.421 2°52.156 10.2 243 18.4 100480 73
2009-07-22 07:36:12 51°17.431 2°52.147 10.8 244 18.4 100470 73
2009-07-22 07:36:17 51°17.444 2°52.137 10.1 245 18.4 100470 73
2009-07-22 07:36:22 51°17.457 2°52.126 12 23 18.4 100480 72
2009-07-22 07:36:28 51°17.472 2°52.112 9.6 246 18.4 100480 72
2009-07-22 07:36:32 51°17.483 2°52.103 10.1 246 18.4 100470 73
2009-07-22 07:36:37 51°17.495 2°52.091 8.9 239 18.4 100470 73
2009-07-22 07:36:42 51°17.508 2°52.079 11.3 277 18.4 100470 72
2009-07-22 07:36:48 51°17.523 2°52.064 11 241 18.4 100470 72
2009-07-22 07:36:52 51°17.533 2°52.055 9.4 27 18.4 100470 72
2009-07-22 07:36:57 51°17.545 2°52.041 8.9 240 18.4 100470 72
2009-07-22 07:37:02 51°17.557 2°52.028 9.2 25 18.4 100470 73
2009-07-22 07:37:08 51°17.572 2°52.01 11.5 240 18.4 100470 73
2009-07-22 07:37:12 51°17.581 2°51.999 11.5 284 18.4 100470 73
2009-07-22 07:37:17 51°17.593 2°51.985 11.7 243 18.4 100470 73
2009-07-22 07:37:22 51°17.605 2°51.971 11.4 27 18.4 100470 73
2009-07-22 07:37:28 51°17.619 2°51.954 10.9 244 18.4 100470 73
2009-07-22 07:37:32 51°17.628 2°51.943 12.3 277 18.4 100470 72
2009-07-22 07:37:37 51°17.64 2°51.928 11.8 241 18.4 100470 72
2009-07-22 07:37:42 51°17.651 2°51.913 10.9 29 18.4 100470 72
2009-07-22 07:37:48 51°17.665 2°51.896 10.3 237 18.4 100470 72
2009-07-22 07:37:52 51°17.674 2°51.884 9.6 279 18.4 100470 73
2009-07-22 07:37:57 51°17.686 2°51.869 10.3 240 18.4 100470 73
2009-07-22 07:38:02 51°17.697 2°51.854 8.8 21 18.4 100460 72
2009-07-22 07:38:08 51°17.711 2°51.836 11.5 238 18.4 100460 72
2009-07-22 07:38:12 51°17.721 2°51.824 9.6 281 18.4 100460 72
2009-07-22 07:38:17 51°17.732 2°51.809 11.1 239 18.4 100460 72
2009-07-22 07:38:22 51°17.744 2°51.794 11 21 18.4 100470 73
2009-07-22 07:38:28 51°17.757 2°51.775 10.5 242 18.4 100470 73
2009-07-22 07:38:32 51°17.766 2°51.763 11.4 25 18.4 100470 73
2009-07-22 07:38:37 51°17.778 2°51.748 9.2 240 18.4 100470 73
2009-07-22 07:38:41 51°17.788 2°51.736 10.5 279 18.4 100460 73
2009-07-22 07:38:47 51°17.802 2°51.718 10.5 241 18.4 100460 73
2009-07-22 07:38:52 51°17.814 2°51.703 11.1 277 18.4 100460 72
2009-07-22 07:38:57 51°17.826 2°51.689 11 240 18.4 100460 72
2009-07-22 07:39:02 51°17.837 2°51.674 13.6 281 18.4 100460 72
2009-07-22 07:39:08 51°17.852 2°51.656 11.1 240 18.4 100460 72
2009-07-22 07:39:12 51°17.861 2°51.644 11.6 282 18.4 100460 73
2009-07-22 07:39:16 51°17.871 2°51.633 12.4 240 18.4 100460 73
2009-07-22 07:39:22 51°17.885 2°51.614 11.5 25 18.4 100460 73
2009-07-22 07:39:28 51°17.899 2°51.597 11.6 241 18.4 100460 73
2009-07-22 07:39:32 51°17.908 2°51.584 13 281 18.4 100460 73
2009-07-22 07:39:36 51°17.917 2°51.572 11.5 244 18.4 100460 73
2009-07-22 07:39:42 51°17.931 2°51.554 11.7 280 18.4 100470 72
2009-07-22 07:39:48 51°17.945 2°51.536 11.7 242 18.4 100470 72
2009-07-22 07:39:52 51°17.955 2°51.524 12.5 279 18.4 100460 72
2009-07-22 07:39:57 51°17.967 2°51.509 10.8 237 18.4 100460 72
2009-07-22 07:40:02 51°17.978 2°51.494 12.1 281 18.4 100460 73
2009-07-22 07:40:08 51°17.993 2°51.476 9.8 241 18.4 100460 73
2009-07-22 07:40:12 51°18.002 2°51.464 10.4 279 18.4 100460 72
2009-07-22 07:40:17 51°18.014 2°51.449 10.6 242 18.4 100460 72
2009-07-22 07:40:22 51°18.026 2°51.434 10.9 29 18.3 100460 72
2009-07-22 07:40:27 51°18.038 2°51.419 13.2 242 18.3 100460 72
2009-07-22 07:40:32 51°18.05 2°51.404 11 278 18.4 100460 73
2009-07-22 07:40:36 51°18.06 2°51.393 11.2 244 18.4 100460 73
2009-07-22 07:40:42 51°18.074 2°51.375 10.7 280 18.4 100460 72
2009-07-22 07:40:48 51°18.089 2°51.357 12.9 246 18.4 100460 72
2009-07-22 07:40:52 51°18.098 2°51.346 9.9 284 18.3 100460 72
2009-07-22 07:40:57 51°18.11 2°51.331 10.9 244 18.3 100460 72
2009-07-22 07:41:02 51°18.122 2°51.317 12 286 18.3 100460 72
2009-07-22 07:41:08 51°18.137 2°51.299 12.2 241 18.3 100460 72
2009-07-22 07:41:12 51°18.147 2°51.287 10.9 277 18.3 100460 73
2009-07-22 07:41:17 51°18.159 2°51.273 10.8 242 18.3 100460 73
2009-07-22 07:41:22 51°18.171 2°51.258 13.7 23 18.3 100460 72
2009-07-22 07:41:28 51°18.185 2°51.24 12.7 242 18.3 100460 72
2009-07-22 07:41:32 51°18.194 2°51.228 12.7 280 18.3 100460 73
2009-07-22 07:41:37 51°18.207 2°51.213 13.4 238 18.3 100460 73
2009-07-22 07:41:42 51°18.218 2°51.197 13.5 281 18.3 100460 73
2009-07-22 07:41:47 51°18.23 2°51.183 13.8 244 18.3 100460 73
2009-07-22 07:41:52 51°18.242 2°51.168 13.5 280 18.3 100460 73
2009-07-22 07:41:57 51°18.254 2°51.153 11.4 242 18.3 100460 73
2009-07-22 07:42:02 51°18.266 2°51.138 10.8 23 18.3 100460 72
2009-07-22 07:42:08 51°18.28 2°51.12 13.1 239 18.3 100460 72
2009-07-22 07:42:12 51°18.29 2°51.108 11.3 279 18.3 100460 72
2009-07-22 07:42:17 51°18.302 2°51.093 11 234 18.3 100460 72
2009-07-22 07:42:22 51°18.314 2°51.078 11.3 23 18.3 100460 73
2009-07-22 07:42:28 51°18.328 2°51.06 11.4 32 18.3 100460 73
2009-07-22 07:42:32 51°18.338 2°51.048 10.2 285 18.3 100460 72
2009-07-22 07:42:37 51°18.35 2°51.033 13.2 241 18.3 100460 72
2009-07-22 07:42:41 51°18.359 2°51.021 11.8 280 18.3 100460 72
2009-07-22 07:42:47 51°18.373 2°51.003 14.1 240 18.3 100460 72
2009-07-22 07:42:52 51°18.385 2°50.988 12.5 29 18.4 100460 73
2009-07-22 07:42:57 51°18.397 2°50.973 13.6 33 18.4 100460 73
2009-07-22 07:43:02 51°18.409 2°50.958 13.5 284 18.4 100450 72
2009-07-22 07:43:07 51°18.42 2°50.942 12.8 32 18.4 100450 72
2009-07-22 07:43:12 51°18.432 2°50.926 12.8 278 18.4 100460 73
2009-07-22 07:43:16 51°18.441 2°50.914 14.4 235 18.4 100460 73
2009-07-22 07:43:22 51°18.455 2°50.895 12.2 26 18.3 100450 73
2009-07-22 07:43:28 51°18.469 2°50.875 14.6 34 18.3 100450 73
2009-07-22 07:43:32 51°18.478 2°50.863 12.9 281 18.3 100460 72
2009-07-22 07:43:37 51°18.489 2°50.847 13.8 34 18.3 100460 72
2009-07-22 07:43:42 51°18.501 2°50.831 12.6 279 18.3 100450 72
2009-07-22 07:43:47 51°18.512 2°50.814 14.8 233 18.3 100450 72
2009-07-22 07:43:52 51°18.524 2°50.799 11.9 281 18.3 100460 72
2009-07-22 07:43:57 51°18.535 2°50.782 11.9 233 18.3 100460 72
2009-07-22 07:44:02 51°18.546 2°50.766 13.2 280 18.2 100450 72
2009-07-22 07:44:07 51°18.558 2°50.75 15.9 233 18.2 100450 72
2009-07-22 07:44:12 51°18.569 2°50.734 14.6 277 18.2 100450 71
2009-07-22 07:44:17 51°18.58 2°50.718 14.5 233 18.2 100450 71
2009-07-22 07:44:21 51°18.589 2°50.704 13.7 28 18.2 100450 72
2009-07-22 07:44:28 51°18.605 2°50.682 13.2 33 18.2 100450 72
2009-07-22 07:44:32 51°18.614 2°50.669 13.6 282 18.2 100450 72
2009-07-22 07:44:37 51°18.625 2°50.653 12.1 37 18.2 100450 72
2009-07-22 07:44:42 51°18.637 2°50.637 13.5 285 18.1 100450 71
2009-07-22 07:44:47 51°18.648 2°50.62 15 32 18.1 100450 71
2009-07-22 07:44:52 51°18.659 2°50.604 13.9 281 18.1 100450 71
2009-07-22 07:44:56 51°18.669 2°50.591 14.4 35 18.1 100450 71
2009-07-22 07:45:02 51°18.682 2°50.572 12.5 280 18.1 100450 71
2009-07-22 07:45:07 51°18.693 2°50.555 12.4 32 18.1 100450 71
2009-07-22 07:45:12 51°18.705 2°50.539 11.7 281 18.1 100460 71
2009-07-22 07:45:17 51°18.716 2°50.523 13.5 234 18.1 100460 71
2009-07-22 07:45:22 51°18.727 2°50.506 13.9 28 18 100460 71
2009-07-22 07:45:27 51°18.738 2°50.49 13.1 37 18 100460 71
2009-07-22 07:45:32 51°18.75 2°50.473 13 278 18 100450 72
2009-07-22 07:45:37 51°18.761 2°50.457 11 233 18 100450 72
2009-07-22 07:45:42 51°18.772 2°50.441 12.8 279 18 100460 71
2009-07-22 07:45:48 51°18.786 2°50.421 14.2 234 18 100460 71
2009-07-22 07:45:52 51°18.795 2°50.408 12.2 28 18 100470 71
2009-07-22 07:45:57 51°18.807 2°50.392 11.4 235 18 100470 71
2009-07-22 07:46:01 51°18.816 2°50.379 12.3 276 18 100460 72
2009-07-22 07:46:07 51°18.829 2°50.359 11.9 233 18 100460 72
2009-07-22 07:46:12 51°18.841 2°50.343 13.4 280 18 100460 71
2009-07-22 07:46:17 51°18.852 2°50.327 11.3 34 18 100460 71
2009-07-22 07:46:22 51°18.863 2°50.31 11.4 22 17.9 100460 71
2009-07-22 07:46:27 51°18.875 2°50.294 11.3 35 17.9 100460 71
2009-07-22 07:46:32 51°18.886 2°50.277 11.2 282 17.9 100460 72
2009-07-22 07:46:37 51°18.898 2°50.261 11.4 35 17.9 100460 72
2009-07-22 07:46:42 51°18.909 2°50.244 13.3 25 17.9 100460 71
2009-07-22 07:46:48 51°18.923 2°50.225 12.8 32 17.9 100460 71
2009-07-22 07:46:52 51°18.932 2°50.212 11.6 285 17.9 100460 72
2009-07-22 07:46:57 51°18.943 2°50.196 13.2 233 17.9 100460 72
2009-07-22 07:47:02 51°18.955 2°50.18 14.1 27 17.9 100470 71
2009-07-22 07:47:08 51°18.969 2°50.161 12.2 234 17.9 100470 71
2009-07-22 07:47:12 51°18.978 2°50.148 11 280 17.9 100460 72
2009-07-22 07:47:17 51°18.99 2°50.132 14.8 235 17.9 100460 72
2009-07-22 07:47:22 51°19.002 2°50.116 14.7 26 17.9 100460 71
2009-07-22 07:47:28 51°19.015 2°50.096 11.8 236 17.9 100460 71
2009-07-22 07:47:32 51°19.025 2°50.084 13.8 27 17.9 100460 72
2009-07-22 07:47:37 51°19.036 2°50.067 13.2 235 17.9 100460 72
2009-07-22 07:47:41 51°19.046 2°50.055 11.6 282 17.9 100470 72
2009-07-22 07:47:47 51°19.06 2°50.036 13.8 38 17.9 100470 72
2009-07-22 07:47:52 51°19.072 2°50.02 14.4 281 17.8 100460 71
2009-07-22 07:47:57 51°19.083 2°50.004 14.7 33 17.8 100460 71
2009-07-22 07:48:02 51°19.095 2°49.988 11.6 281 17.8 100470 72
2009-07-22 07:48:08 51°19.109 2°49.969 10.8 232 17.8 100470 72
2009-07-22 07:48:12 51°19.118 2°49.956 13.1 284 17.8 100470 72
2009-07-22 07:48:16 51°19.127 2°49.943 11.6 234 17.8 100470 72
2009-07-22 07:48:22 51°19.141 2°49.923 14 24 17.8 100470 72
2009-07-22 07:48:28 51°19.155 2°49.905 14.3 38 17.8 100470 72
2009-07-22 07:48:32 51°19.164 2°49.891 11.9 282 17.8 100460 72
2009-07-22 07:48:37 51°19.176 2°49.875 12.8 34 17.8 100460 72
2009-07-22 07:48:42 51°19.188 2°49.86 11.9 286 17.8 100460 71
2009-07-22 07:48:48 51°19.202 2°49.841 12.1 31 17.8 100460 71
2009-07-22 07:48:52 51°19.212 2°49.828 12.8 277 17.8 100470 72
2009-07-22 07:48:57 51°19.224 2°49.812 12.9 234 17.8 100470 72
2009-07-22 07:49:02 51°19.236 2°49.796 15.3 281 17.8 100470 72
2009-07-22 07:49:08 51°19.25 2°49.776 13 235 17.8 100470 72
2009-07-22 07:49:12 51°19.26 2°49.764 12.4 279 17.8 100460 72
2009-07-22 07:49:17 51°19.271 2°49.747 14.6 34 17.8 100460 72
2009-07-22 07:49:22 51°19.283 2°49.731 12.2 26 17.8 100470 72
2009-07-22 07:49:27 51°19.295 2°49.714 13.8 235 17.8 100470 72
2009-07-22 07:49:32 51°19.307 2°49.699 13.1 282 17.7 100460 72
2009-07-22 07:49:37 51°19.319 2°49.682 13.5 34 17.7 100460 72
2009-07-22 07:49:42 51°19.331 2°49.666 12.4 280 17.7 100460 72
2009-07-22 07:49:47 51°19.343 2°49.65 12.3 33 17.7 100460 72
2009-07-22 07:49:52 51°19.354 2°49.634 13.8 280 17.7 100470 71
2009-07-22 07:49:56 51°19.364 2°49.621 12.4 237 17.7 100470 71
2009-07-22 07:50:02 51°19.378 2°49.601 13.2 280 17.7 100460 71
2009-07-22 07:50:08 51°19.392 2°49.582 13.7 36 17.7 100460 71
2009-07-22 07:50:12 51°19.401 2°49.568 13.3 286 17.7 100460 72
2009-07-22 07:50:17 51°19.413 2°49.552 12.2 234 17.7 100460 72
2009-07-22 07:50:22 51°19.425 2°49.536 14.1 27 17.7 100460 71
2009-07-22 07:50:28 51°19.439 2°49.516 14.2 234 17.7 100460 71
2009-07-22 07:50:32 51°19.449 2°49.503 14.7 283 17.7 100460 71
2009-07-22 07:50:37 51°19.461 2°49.487 13.2 35 17.7 100460 71
2009-07-22 07:50:42 51°19.472 2°49.471 13.2 280 17.7 100460 72
2009-07-22 07:50:48 51°19.487 2°49.452 14.2 235 17.7 100460 72
2009-07-22 07:50:52 51°19.496 2°49.439 13.3 282 17.7 100470 72
2009-07-22 07:50:57 51°19.508 2°49.422 12.1 35 17.7 100470 72
2009-07-22 07:51:01 51°19.517 2°49.409 12.1 283 17.7 100460 71
2009-07-22 07:51:08 51°19.533 2°49.386 12.5 234 17.7 100460 71
2009-07-22 07:51:12 51°19.542 2°49.373 12.9 279 17.7 100460 71
2009-07-22 07:51:16 51°19.552 2°49.359 14.4 237 17.7 100460 71
2009-07-22 07:51:23 51°19.568 2°49.336 12.9 25 17.7 100450 71
2009-07-22 07:51:27 51°19.577 2°49.323 13.6 238 17.7 100450 71
2009-07-22 07:51:32 51°19.589 2°49.306 11.5 276 17.7 100460 71
2009-07-22 07:51:36 51°19.598 2°49.293 13 34 17.7 100460 72
2009-07-22 07:51:41 51°19.61 2°49.276 12.2 278 17.7 100460 72
2009-07-22 07:51:47 51°19.624 2°49.256 13.7 235 17.7 100460 72
2009-07-22 07:51:52 51°19.635 2°49.239 13.2 282 17.7 100460 72
2009-07-22 07:51:56 51°19.644 2°49.226 12.2 236 17.7 100460 71
2009-07-22 07:52:03 51°19.66 2°49.202 13.4 280 17.7 100460 71
2009-07-22 07:52:08 51°19.672 2°49.185 10.8 234 17.7 100460 71
2009-07-22 07:52:12 51°19.681 2°49.173 11.9 280 17.7 100460 71
2009-07-22 07:52:17 51°19.692 2°49.155 11.4 233 17.7 100470 72
2009-07-22 07:52:23 51°19.706 2°49.136 12.7 283 17.7 100470 72
2009-07-22 07:52:28 51°19.718 2°49.119 12.9 237 17.7 100470 72
2009-07-22 07:52:32 51°19.727 2°49.105 14 284 17.7 100460 71
2009-07-22 07:52:37 51°19.738 2°49.089 13.7 35 17.7 100460 71
2009-07-22 07:52:43 51°19.752 2°49.068 11.3 283 17.7 100460 72
2009-07-22 07:52:48 51°19.763 2°49.051 11.5 236 17.7 100460 72
2009-07-22 07:52:52 51°19.772 2°49.038 13 277 17.7 100460 72
2009-07-22 07:52:57 51°19.784 2°49.02 14.5 237 17.7 100460 72
2009-07-22 07:53:03 51°19.797 2°49 12.8 280 17.7 100450 72
2009-07-22 07:53:08 51°19.809 2°48.983 11.7 236 17.7 100450 72
2009-07-22 07:53:12 51°19.818 2°48.969 13.1 286 17.8 100470 71
2009-07-22 07:53:17 51°19.829 2°48.952 12.8 234 17.8 100470 71
2009-07-22 07:53:21 51°19.839 2°48.938 12.6 282 17.7 100460 71
2009-07-22 07:53:28 51°19.855 2°48.914 13.6 34 17.7 100460 71
2009-07-22 07:53:32 51°19.864 2°48.9 14.1 282 17.7 100450 72
2009-07-22 07:53:37 51°19.875 2°48.884 11.7 33 17.7 100450 72
2009-07-22 07:53:41 51°19.884 2°48.87 11.8 277 17.7 100460 72
2009-07-22 07:53:47 51°19.898 2°48.849 10.8 238 17.7 100460 72
2009-07-22 07:53:52 51°19.91 2°48.833 12.4 277 17.8 100470 72
2009-07-22 07:53:57 51°19.921 2°48.816 12.3 237 17.8 100460 71
2009-07-22 07:54:01 51°19.93 2°48.802 11.5 282 17.8 100460 71
2009-07-22 07:54:07 51°19.944 2°48.782 13.1 36 17.8 100460 71
2009-07-22 07:54:12 51°19.956 2°48.764 12.1 278 17.8 100460 72
2009-07-22 07:54:17 51°19.967 2°48.747 12.7 238 17.8 100470 72
2009-07-22 07:54:23 51°19.981 2°48.727 11.8 283 17.8 100470 72
2009-07-22 07:54:28 51°19.992 2°48.71 12.3 238 17.8 100470 72
2009-07-22 07:54:32 51°20.002 2°48.696 12.4 282 17.8 100460 71
2009-07-22 07:54:37 51°20.013 2°48.679 13.1 237 17.8 100460 72
2009-07-22 07:54:43 51°20.027 2°48.659 12.3 279 17.8 100460 72
2009-07-22 07:54:48 51°20.038 2°48.641 13.3 237 17.8 100460 72
2009-07-22 07:54:52 51°20.047 2°48.628 13.5 278 17.8 100460 71
2009-07-22 07:54:57 51°20.059 2°48.61 11.8 236 17.8 100460 71
2009-07-22 07:55:03 51°20.073 2°48.59 11.7 275 17.8 100460 71
2009-07-22 07:55:08 51°20.084 2°48.573 11.1 236 17.8 100460 71
2009-07-22 07:55:12 51°20.093 2°48.559 10.3 280 17.8 100460 71
2009-07-22 07:55:17 51°20.105 2°48.542 12.5 32 17.8 100460 71
2009-07-22 07:55:21 51°20.114 2°48.528 12.3 282 17.8 100460 71
2009-07-22 07:55:28 51°20.13 2°48.504 14 33 17.8 100460 71
2009-07-22 07:55:32 51°20.139 2°48.49 12.7 284 17.8 100470 72
2009-07-22 07:55:37 51°20.15 2°48.473 12.8 33 17.8 100470 72
2009-07-22 07:55:41 51°20.159 2°48.459 13.9 286 17.8 100460 71
2009-07-22 07:55:48 51°20.175 2°48.435 11.3 236 17.8 100460 71
2009-07-22 07:55:52 51°20.184 2°48.421 12 280 17.8 100460 71
2009-07-22 07:55:57 51°20.196 2°48.404 13.3 234 17.8 100460 71
2009-07-22 07:56:01 51°20.205 2°48.39 12.6 280 17.8 100460 71
2009-07-22 07:56:07 51°20.219 2°48.369 13.1 33 17.8 100460 71
2009-07-22 07:56:12 51°20.23 2°48.352 13 284 17.8 100450 72
2009-07-22 07:56:17 51°20.242 2°48.335 11.2 234 17.8 100450 71
2009-07-22 07:56:23 51°20.256 2°48.314 11.9 -999 17.8 100450 71
2009-07-22 07:56:28 51°20.267 2°48.297 12.4 33 17.8 100450 71
2009-07-22 07:56:32 51°20.276 2°48.284 12.1 282 17.8 100460 72
2009-07-22 07:56:37 51°20.287 2°48.266 13.1 238 17.8 100450 71
2009-07-22 07:56:43 51°20.301 2°48.246 12.2 278 17.8 100450 71
2009-07-22 07:56:48 51°20.312 2°48.229 12.3 235 17.8 100450 71
2009-07-22 07:56:52 51°20.321 2°48.215 14.7 281 17.8 100440 70
2009-07-22 07:56:57 51°20.333 2°48.198 13.2 235 17.8 100450 72
2009-07-22 07:57:03 51°20.346 2°48.177 14.2 279 17.8 100450 72
2009-07-22 07:57:08 51°20.358 2°48.16 12.1 237 17.8 100450 72
2009-07-22 07:57:12 51°20.367 2°48.146 13.8 277 17.8 100460 71
2009-07-22 07:57:17 51°20.379 2°48.129 13.5 239 17.8 100460 71
2009-07-22 07:57:23 51°20.392 2°48.109 14 283 17.8 100450 71
2009-07-22 07:57:28 51°20.404 2°48.092 11.5 238 17.8 100450 71
2009-07-22 07:57:32 51°20.413 2°48.078 12.2 284 17.8 100460 70
2009-07-22 07:57:37 51°20.424 2°48.061 13.9 238 17.8 100460 70
2009-07-22 07:57:43 51°20.438 2°48.041 13 280 17.8 100460 71
2009-07-22 07:57:48 51°20.449 2°48.023 13.9 238 17.8 100460 71
2009-07-22 07:57:52 51°20.458 2°48.01 13.9 281 17.8 100450 71
2009-07-22 07:57:57 51°20.47 2°47.992 12.8 35 17.8 100450 71
2009-07-22 07:58:01 51°20.479 2°47.979 10.4 275 17.8 100460 71
2009-07-22 07:58:08 51°20.495 2°47.955 10.9 237 17.8 100450 71
2009-07-22 07:58:12 51°20.504 2°47.942 14.2 284 17.8 100450 71
2009-07-22 07:58:17 51°20.516 2°47.925 10.7 236 17.8 100450 71
2009-07-22 07:58:22 51°20.527 2°47.908 12.9 281 17.8 100450 70
2009-07-22 07:58:28 51°20.541 2°47.888 14.6 239 17.8 100450 70
2009-07-22 07:58:32 51°20.55 2°47.874 13.8 281 17.8 100460 70
2009-07-22 07:58:37 51°20.562 2°47.857 14.6 239 17.8 100450 71
2009-07-22 07:58:42 51°20.573 2°47.84 11.5 284 17.8 100450 71
2009-07-22 07:58:48 51°20.587 2°47.82 11 237 17.8 100450 71
2009-07-22 07:58:52 51°20.596 2°47.806 12.3 284 17.8 100450 72
2009-07-22 07:58:57 51°20.607 2°47.789 12.4 34 17.8 100450 71
2009-07-22 07:59:02 51°20.618 2°47.772 12.4 282 17.8 100450 71
2009-07-22 07:59:08 51°20.632 2°47.752 13.6 33 17.8 100450 70
2009-07-22 07:59:12 51°20.641 2°47.738 11.5 277 17.8 100450 70
2009-07-22 07:59:17 51°20.653 2°47.722 13.2 238 17.8 100460 71
2009-07-22 07:59:22 51°20.665 2°47.705 12.2 278 17.8 100460 71
2009-07-22 07:59:28 51°20.679 2°47.685 11.2 238 17.8 100450 70
2009-07-22 07:59:32 51°20.688 2°47.672 11.2 282 17.8 100450 70
2009-07-22 07:59:37 51°20.7 2°47.655 10 236 17.8 100450 70
2009-07-22 07:59:42 51°20.711 2°47.639 11.5 281 17.8 100450 70
2009-07-22 07:59:48 51°20.725 2°47.619 13.6 238 17.8 100460 71
2009-07-22 07:59:52 51°20.735 2°47.605 12.6 282 17.8 100460 71
2009-07-22 07:59:57 51°20.747 2°47.588 12.7 237 17.8 100450 70
2009-07-22 08:00:02 51°20.758 2°47.571 13.8 278 17.8 100450 70
2009-07-22 08:00:08 51°20.773 2°47.552 12 238 17.8 100450 70
2009-07-22 08:00:12 51°20.782 2°47.538 13.2 280 17.8 100450 70
2009-07-22 08:00:17 51°20.794 2°47.521 13.2 238 17.8 100450 71
2009-07-22 08:00:22 51°20.805 2°47.504 13.6 26 17.8 100450 71
2009-07-22 08:00:28 51°20.82 2°47.484 11.9 238 17.8 100450 70
2009-07-22 08:00:32 51°20.829 2°47.47 11 281 17.8 100450 70
2009-07-22 08:00:37 51°20.841 2°47.453 9.9 239 17.8 100450 70
2009-07-22 08:00:42 51°20.852 2°47.436 10.3 280 17.8 100450 70
2009-07-22 08:00:48 51°20.866 2°47.415 12.2 237 17.8 100450 70
2009-07-22 08:00:52 51°20.875 2°47.401 11.6 281 17.8 100450 71
2009-07-22 08:00:57 51°20.887 2°47.384 12.6 235 17.8 100460 71
2009-07-22 08:01:02 51°20.898 2°47.366 13.3 281 17.8 100460 71
2009-07-22 08:01:08 51°20.913 2°47.345 12.8 239 17.8 100460 71
2009-07-22 08:01:12 51°20.922 2°47.331 10.8 278 17.8 100460 71
2009-07-22 08:01:17 51°20.934 2°47.314 12.8 236 17.8 100460 70
2009-07-22 08:01:22 51°20.946 2°47.297 12.6 278 17.8 100460 70
2009-07-22 08:01:28 51°20.96 2°47.276 13.4 237 17.8 100450 71
2009-07-22 08:01:32 51°20.969 2°47.262 13 284 17.8 100450 71
2009-07-22 08:01:37 51°20.981 2°47.245 11.5 236 17.8 100450 71
2009-07-22 08:01:42 51°20.993 2°47.228 11.4 283 17.8 100450 71
2009-07-22 08:01:48 51°21.007 2°47.208 14.1 238 17.8 100450 71
2009-07-22 08:01:52 51°21.017 2°47.195 12.1 279 17.8 100450 71
2009-07-22 08:01:57 51°21.029 2°47.178 12.2 239 17.8 100450 70
2009-07-22 08:02:02 51°21.04 2°47.16 12.2 282 17.8 100450 70
2009-07-22 08:02:08 51°21.055 2°47.141 11.4 239 17.8 100450 70
2009-07-22 08:02:12 51°21.064 2°47.126 11.8 276 17.8 100450 70
2009-07-22 08:02:17 51°21.076 2°47.11 12.9 239 17.8 100450 70
2009-07-22 08:02:22 51°21.088 2°47.092 12.4 23 17.8 100450 70
2009-07-22 08:02:28 51°21.102 2°47.072 12.5 238 17.8 100450 70
2009-07-22 08:02:32 51°21.111 2°47.058 12.7 280 17.8 100450 70
2009-07-22 08:02:37 51°21.123 2°47.04 13.6 240 17.8 100450 71
2009-07-22 08:02:42 51°21.135 2°47.022 12.3 280 17.8 100450 71
2009-07-22 08:02:48 51°21.149 2°47.002 10.9 239 17.8 100450 71
2009-07-22 08:02:52 51°21.159 2°46.988 10.7 279 17.8 100450 71
2009-07-22 08:02:57 51°21.171 2°46.971 13.4 239 17.8 100450 70
2009-07-22 08:03:02 51°21.182 2°46.954 12 284 17.8 100450 70
2009-07-22 08:03:08 51°21.197 2°46.934 11.9 32 17.8 100450 70
2009-07-22 08:03:12 51°21.206 2°46.921 10.9 277 17.8 100450 70
2009-07-22 08:03:17 51°21.218 2°46.904 11.2 239 17.8 100450 70
2009-07-22 08:03:22 51°21.23 2°46.887 12.9 276 17.8 100450 70
2009-07-22 08:03:28 51°21.245 2°46.866 12.3 239 17.8 100450 70
2009-07-22 08:03:32 51°21.254 2°46.853 11.7 276 17.8 100450 70
2009-07-22 08:03:37 51°21.266 2°46.837 9.6 238 17.8 100450 70
2009-07-22 08:03:42 51°21.278 2°46.819 10 278 17.8 100450 70
2009-07-22 08:03:48 51°21.293 2°46.799 11.2 238 17.8 100460 69
2009-07-22 08:03:52 51°21.302 2°46.785 9.9 279 17.8 100460 69
2009-07-22 08:03:57 51°21.314 2°46.769 12.9 238 17.8 100460 71
2009-07-22 08:04:02 51°21.326 2°46.753 13 278 17.8 100460 71
2009-07-22 08:04:08 51°21.34 2°46.732 12.6 239 17.8 100460 71
2009-07-22 08:04:12 51°21.35 2°46.719 11.1 280 17.8 100460 71
2009-07-22 08:04:17 51°21.362 2°46.702 11.7 239 17.8 100460 70
2009-07-22 08:04:22 51°21.374 2°46.685 12.1 281 17.8 100460 70
2009-07-22 08:04:28 51°21.388 2°46.665 13 239 17.8 100450 69
2009-07-22 08:04:32 51°21.398 2°46.652 10.8 275 17.8 100450 69
2009-07-22 08:04:37 51°21.41 2°46.635 11.9 236 17.8 100450 70
2009-07-22 08:04:42 51°21.421 2°46.618 13.5 286 17.8 100450 70
2009-07-22 08:04:48 51°21.435 2°46.598 13.7 239 17.8 100450 69
2009-07-22 08:04:52 51°21.445 2°46.584 10.5 285 17.8 100450 69
2009-07-22 08:04:57 51°21.457 2°46.568 11.2 240 17.8 100450 70
2009-07-22 08:05:02 51°21.469 2°46.551 11.7 286 17.8 100450 70
2009-07-22 08:05:08 51°21.483 2°46.531 10.2 236 17.8 100450 70
2009-07-22 08:05:12 51°21.493 2°46.518 14 281 17.8 100450 69
2009-07-22 08:05:17 51°21.504 2°46.5 11.7 238 17.8 100450 70
2009-07-22 08:05:22 51°21.516 2°46.484 10.5 280 17.8 100450 70
2009-07-22 08:05:28 51°21.53 2°46.464 12.2 240 17.8 100450 70
2009-07-22 08:05:32 51°21.54 2°46.45 10.8 277 17.8 100450 69
2009-07-22 08:05:37 51°21.552 2°46.434 12.8 236 17.8 100450 70
2009-07-22 08:05:42 51°21.564 2°46.417 11.9 282 17.8 100450 70
2009-07-22 08:05:48 51°21.578 2°46.397 13.6 239 17.8 100460 69
2009-07-22 08:05:52 51°21.587 2°46.384 11.9 282 17.8 100460 69
2009-07-22 08:05:57 51°21.599 2°46.367 13.2 238 17.8 100450 70
2009-07-22 08:06:02 51°21.611 2°46.351 13.9 278 17.8 100450 70
2009-07-22 08:06:08 51°21.625 2°46.331 11.6 239 17.8 100450 69
2009-07-22 08:06:12 51°21.635 2°46.318 10.5 277 17.8 100450 69
2009-07-22 08:06:17 51°21.646 2°46.301 13 237 17.8 100450 69
2009-07-22 08:06:22 51°21.659 2°46.285 11.5 280 17.8 100450 69
2009-07-22 08:06:28 51°21.673 2°46.265 13.1 241 17.8 100440 69
2009-07-22 08:06:32 51°21.682 2°46.251 11.8 281 17.8 100440 69
2009-07-22 08:06:37 51°21.694 2°46.235 12.3 240 17.8 100450 69
2009-07-22 08:06:42 51°21.705 2°46.219 13.6 284 17.8 100450 69
2009-07-22 08:06:48 51°21.72 2°46.2 11.3 240 17.8 100450 69
2009-07-22 08:06:52 51°21.729 2°46.187 13.5 279 17.8 100450 69
2009-07-22 08:06:57 51°21.741 2°46.17 13.6 241 17.8 100450 70
2009-07-22 08:07:02 51°21.753 2°46.154 12.2 276 17.8 100450 70
2009-07-22 08:07:08 51°21.767 2°46.134 11.4 239 17.8 100450 70
2009-07-22 08:07:12 51°21.777 2°46.121 10.8 280 17.8 100450 70
2009-07-22 08:07:17 51°21.789 2°46.104 13.2 238 17.8 100450 70
2009-07-22 08:07:22 51°21.801 2°46.088 11.4 279 17.8 100450 70
2009-07-22 08:07:28 51°21.815 2°46.067 13.3 242 17.8 100450 70
2009-07-22 08:07:32 51°21.825 2°46.054 10.3 281 17.9 100460 69
2009-07-22 08:07:37 51°21.837 2°46.038 11.9 239 17.9 100460 69
2009-07-22 08:07:42 51°21.849 2°46.021 13.5 280 17.9 100460 69
2009-07-22 08:07:48 51°21.863 2°46.001 12.7 241 17.9 100460 69
2009-07-22 08:07:52 51°21.873 2°45.987 11 277 17.9 100450 69
2009-07-22 08:07:57 51°21.885 2°45.971 10.5 241 17.9 100450 70
2009-07-22 08:08:02 51°21.897 2°45.954 10.8 279 17.9 100450 70
2009-07-22 08:08:08 51°21.911 2°45.934 12 238 17.9 100450 69
2009-07-22 08:08:12 51°21.92 2°45.92 11.5 277 17.9 100450 69
2009-07-22 08:08:17 51°21.932 2°45.903 12.3 242 17.9 100450 70
2009-07-22 08:08:22 51°21.944 2°45.887 11.4 282 17.9 100450 70
2009-07-22 08:08:28 51°21.958 2°45.866 13.1 242 17.9 100450 70
2009-07-22 08:08:32 51°21.968 2°45.853 10.6 279 17.9 100450 70
2009-07-22 08:08:37 51°21.98 2°45.836 9.6 242 17.9 100450 69
2009-07-22 08:08:42 51°21.992 2°45.819 10.3 280 17.9 100450 69
2009-07-22 08:08:48 51°22.006 2°45.798 10 238 17.8 100450 68
2009-07-22 08:08:52 51°22.015 2°45.785 11.8 282 17.8 100450 68
2009-07-22 08:08:57 51°22.027 2°45.768 12.8 238 17.9 100450 70
2009-07-22 08:09:03 51°22.041 2°45.747 12.3 281 17.9 100450 70
2009-07-22 08:09:08 51°22.053 2°45.73 12.2 237 17.9 100450 69
2009-07-22 08:09:12 51°22.063 2°45.717 12.8 278 17.9 100450 69
2009-07-22 08:09:17 51°22.075 2°45.701 11.3 239 17.9 100450 70
2009-07-22 08:09:22 51°22.086 2°45.684 12.7 22 17.9 100450 70
2009-07-22 08:09:28 51°22.101 2°45.665 10.6 236 17.9 100450 69
2009-07-22 08:09:32 51°22.11 2°45.651 12.5 281 17.9 100450 69
2009-07-22 08:09:37 51°22.122 2°45.635 12 239 17.9 100450 69
2009-07-22 08:09:42 51°22.134 2°45.618 10.7 282 17.9 100450 69
2009-07-22 08:09:48 51°22.148 2°45.598 14.3 239 17.9 100450 69
2009-07-22 08:09:52 51°22.157 2°45.584 13.4 284 17.9 100450 70
2009-07-22 08:09:57 51°22.169 2°45.568 14.6 242 17.9 100450 69
2009-07-22 08:10:02 51°22.181 2°45.551 14.3 282 17.9 100450 69
2009-07-22 08:10:08 51°22.195 2°45.531 11.3 243 17.9 100450 69
2009-07-22 08:10:12 51°22.205 2°45.518 12.6 285 17.9 100450 68
2009-07-22 08:10:17 51°22.217 2°45.501 11.1 242 17.9 100440 68
2009-07-22 08:10:22 51°22.228 2°45.485 12.8 279 17.9 100440 68
2009-07-22 08:10:28 51°22.243 2°45.465 12.1 236 17.9 100450 68
2009-07-22 08:10:32 51°22.252 2°45.452 12.9 276 17.9 100450 68
2009-07-22 08:10:37 51°22.264 2°45.436 12.5 244 17.9 100440 69
2009-07-22 08:10:42 51°22.275 2°45.418 12.9 281 17.9 100440 69
2009-07-22 08:10:48 51°22.29 2°45.398 13.1 241 17.9 100450 69
2009-07-22 08:10:52 51°22.299 2°45.384 12.9 280 17.9 100450 69
2009-07-22 08:10:57 51°22.311 2°45.368 11.2 240 17.9 100440 69
2009-07-22 08:11:02 51°22.322 2°45.35 13.3 278 17.9 100440 69
2009-07-22 08:11:08 51°22.336 2°45.33 12.2 239 17.9 100450 68
2009-07-22 08:11:12 51°22.346 2°45.316 12.8 281 17.9 100450 68
2009-07-22 08:11:17 51°22.358 2°45.3 12.3 239 17.9 100450 68
2009-07-22 08:11:22 51°22.369 2°45.283 12.9 26 17.9 100450 68
2009-07-22 08:11:28 51°22.383 2°45.263 11 239 17.9 100450 69
2009-07-22 08:11:32 51°22.393 2°45.249 11.1 280 17.9 100450 69
2009-07-22 08:11:37 51°22.405 2°45.233 10.8 238 17.9 100450 68
2009-07-22 08:11:42 51°22.417 2°45.216 12.7 279 17.9 100450 68
2009-07-22 08:11:48 51°22.431 2°45.196 13.5 239 17.9 100450 69
2009-07-22 08:11:52 51°22.44 2°45.183 11.8 286 17.9 100450 69
2009-07-22 08:11:57 51°22.452 2°45.165 12.7 239 18 100450 69
2009-07-22 08:12:02 51°22.464 2°45.148 11.9 285 18 100450 69
2009-07-22 08:12:08 51°22.478 2°45.128 11.5 240 18 100450 69
2009-07-22 08:12:12 51°22.487 2°45.115 13 282 18 100440 68
2009-07-22 08:12:17 51°22.499 2°45.098 11.3 241 17.9 100450 68
2009-07-22 08:12:22 51°22.511 2°45.081 13.4 278 17.9 100450 68
2009-07-22 08:12:28 51°22.525 2°45.061 12.2 239 17.9 100450 69
2009-07-22 08:12:32 51°22.534 2°45.048 12.6 283 17.9 100450 69
2009-07-22 08:12:37 51°22.546 2°45.03 10.6 240 17.9 100450 69
2009-07-22 08:12:42 51°22.558 2°45.014 11.4 286 17.9 100450 69
2009-07-22 08:12:48 51°22.572 2°44.994 10.7 32 18 100440 68
2009-07-22 08:12:52 51°22.582 2°44.981 12.7 280 18 100440 68
2009-07-22 08:12:57 51°22.593 2°44.963 12.5 238 17.9 100450 69
2009-07-22 08:13:02 51°22.605 2°44.947 13.4 283 17.9 100450 69
2009-07-22 08:13:08 51°22.619 2°44.927 11.1 240 17.9 100450 68
2009-07-22 08:13:12 51°22.628 2°44.913 12.7 279 17.9 100450 68
2009-07-22 08:13:17 51°22.64 2°44.896 11 243 18 100440 68
2009-07-22 08:13:22 51°22.651 2°44.879 12.2 282 18 100440 68
2009-07-22 08:13:28 51°22.666 2°44.859 10.5 242 18 100450 68
2009-07-22 08:13:32 51°22.675 2°44.845 10.9 279 18 100450 68
2009-07-22 08:13:37 51°22.686 2°44.828 12.9 241 17.9 100440 68
2009-07-22 08:13:42 51°22.698 2°44.81 11.3 283 17.9 100440 68
2009-07-22 08:13:48 51°22.712 2°44.789 12.4 238 18 100440 68
2009-07-22 08:13:52 51°22.721 2°44.775 11.8 279 18 100440 68
2009-07-22 08:13:57 51°22.733 2°44.759 10.6 239 17.9 100450 68
2009-07-22 08:14:02 51°22.744 2°44.742 12.3 282 17.9 100450 68
2009-07-22 08:14:08 51°22.758 2°44.721 12.1 239 18 100450 68
2009-07-22 08:14:12 51°22.767 2°44.707 11.5 279 18 100450 68
2009-07-22 08:14:17 51°22.779 2°44.69 13.9 240 17.9 100450 68
2009-07-22 08:14:22 51°22.791 2°44.672 11.4 280 17.9 100450 68
2009-07-22 08:14:28 51°22.804 2°44.651 11.5 239 17.9 100450 68
2009-07-22 08:14:32 51°22.814 2°44.637 13.7 285 18 100440 69
2009-07-22 08:14:37 51°22.825 2°44.62 13.3 240 18 100440 68
2009-07-22 08:14:42 51°22.837 2°44.603 12.8 279 18 100440 68
2009-07-22 08:14:48 51°22.851 2°44.582 11.1 238 18 100440 68
2009-07-22 08:14:52 51°22.86 2°44.568 13.7 277 18 100440 68
2009-07-22 08:14:57 51°22.872 2°44.55 15.4 242 18 100440 68
2009-07-22 08:15:02 51°22.883 2°44.533 14.1 281 18 100440 68
2009-07-22 08:15:08 51°22.896 2°44.512 14.3 242 18 100450 69
2009-07-22 08:15:12 51°22.905 2°44.498 11.9 277 18 100450 69
2009-07-22 08:15:17 51°22.917 2°44.481 13.9 241 17.9 100440 68
2009-07-22 08:15:22 51°22.929 2°44.463 10.7 280 17.9 100440 68
2009-07-22 08:15:28 51°22.943 2°44.443 11.7 241 18 100450 68
2009-07-22 08:15:32 51°22.952 2°44.43 12.7 277 18 100450 68
2009-07-22 08:15:37 51°22.964 2°44.412 13.4 241 18 100440 68
2009-07-22 08:15:43 51°22.977 2°44.391 11.2 281 18 100440 68
2009-07-22 08:15:48 51°22.988 2°44.374 12.2 239 18 100450 68
2009-07-22 08:15:52 51°22.998 2°44.36 14.4 284 18 100450 68
2009-07-22 08:15:57 51°23.01 2°44.343 12.3 242 18 100450 68
2009-07-22 08:16:03 51°23.024 2°44.323 12.5 281 18 100450 68
2009-07-22 08:16:08 51°23.036 2°44.305 14.1 241 18 100440 69
2009-07-22 08:16:12 51°23.045 2°44.292 12.6 282 18 100440 69
2009-07-22 08:16:17 51°23.057 2°44.274 12.9 244 18 100440 68
2009-07-22 08:16:22 51°23.069 2°44.257 12.5 246 18 100440 68
2009-07-22 08:16:28 51°23.083 2°44.236 11.3 239 18 100440 68
2009-07-22 08:16:32 51°23.092 2°44.222 11.7 282 18 100440 68
2009-07-22 08:16:37 51°23.104 2°44.205 11.1 240 18 100440 69
2009-07-22 08:16:42 51°23.115 2°44.187 11.3 285 18 100440 69
2009-07-22 08:16:48 51°23.13 2°44.167 13.2 242 18 100440 69
2009-07-22 08:16:52 51°23.139 2°44.153 11.6 275 18 100450 68
2009-07-22 08:16:57 51°23.151 2°44.136 13.3 242 18 100440 68
2009-07-22 08:17:02 51°23.163 2°44.119 11.4 279 18 100440 68
2009-07-22 08:17:08 51°23.177 2°44.099 10.5 245 18 100440 68
2009-07-22 08:17:12 51°23.187 2°44.084 11.7 277 18 100450 69
2009-07-22 08:17:17 51°23.198 2°44.067 11 243 18 100440 68
2009-07-22 08:17:22 51°23.21 2°44.049 9.8 283 18 100440 68
2009-07-22 08:17:28 51°23.224 2°44.029 12.9 244 18 100440 68
2009-07-22 08:17:32 51°23.234 2°44.015 12.8 276 18 100440 68
2009-07-22 08:17:37 51°23.245 2°43.997 10.8 241 18 100440 69
2009-07-22 08:17:42 51°23.257 2°43.979 10.7 281 18 100440 69
2009-07-22 08:17:48 51°23.271 2°43.958 12.1 238 18 100440 69
2009-07-22 08:17:52 51°23.281 2°43.944 10.7 279 18 100440 69
2009-07-22 08:17:57 51°23.293 2°43.927 13.5 238 18 100440 69
2009-07-22 08:18:02 51°23.305 2°43.91 13 280 18 100450 68
2009-07-22 08:18:08 51°23.319 2°43.889 11 238 18 100450 68
2009-07-22 08:18:12 51°23.328 2°43.875 11.1 279 18 100450 68
2009-07-22 08:18:17 51°23.34 2°43.857 13.1 241 18 100450 69
2009-07-22 08:18:22 51°23.352 2°43.84 10.4 27 18 100450 69
2009-07-22 08:18:28 51°23.366 2°43.819 12.8 242 18 100450 68
2009-07-22 08:18:32 51°23.375 2°43.806 13.5 280 18 100450 68
2009-07-22 08:18:37 51°23.387 2°43.789 11.2 238 18 100440 68
2009-07-22 08:18:42 51°23.399 2°43.772 13.7 280 18 100440 68
2009-07-22 08:18:48 51°23.413 2°43.751 11.6 242 18 100450 68
2009-07-22 08:18:52 51°23.422 2°43.737 11.4 281 18 100450 68
2009-07-22 08:18:57 51°23.434 2°43.719 11.2 242 18 100440 68
2009-07-22 08:19:02 51°23.446 2°43.701 13.1 282 18 100440 68
2009-07-22 08:19:08 51°23.46 2°43.68 13.1 243 18 100440 68
2009-07-22 08:19:12 51°23.47 2°43.667 12.8 283 18 100440 69
2009-07-22 08:19:17 51°23.482 2°43.649 13 243 18 100450 68
2009-07-22 08:19:22 51°23.493 2°43.632 12.2 279 18 100450 68
2009-07-22 08:19:28 51°23.508 2°43.611 12.7 241 18 100450 69
2009-07-22 08:19:32 51°23.517 2°43.597 11.3 276 18 100450 69
2009-07-22 08:19:37 51°23.529 2°43.58 12.2 241 18 100450 69
2009-07-22 08:19:42 51°23.541 2°43.564 10.2 284 18 100450 69
2009-07-22 08:19:48 51°23.555 2°43.542 9.9 242 18 100430 68
2009-07-22 08:19:52 51°23.565 2°43.529 12.9 281 18 100430 68
2009-07-22 08:19:57 51°23.577 2°43.511 11.2 241 18 100440 68
2009-07-22 08:20:02 51°23.589 2°43.494 11.7 284 18 100440 68